User: anonymous   Login
Location: Bangkok
(13.7500°N, 100.5170°E)
Time: 06:08:01
(UTC+07:00)
Language:

Cosmos 1802 Rocket - Orbit

View from above orbital plane
View from above orbital plane
View from above satellite
View from above satellite

Ground track
Ground track

The orbit data is extracted from the following two-line orbital elements,

1 17160U 86093B   15181.66481516  .00000055  00000-0  41938-4 0  9993
2 17160 082.9271 236.5764 0038601 350.4413 170.4397 13.74561077434291
Epoch (UTC): 30 June 2015 15:57:20
Eccentricity: 0.0038601
inclination: 82.9271°
perigee height: 955 km
apogee height: 1011 km
right ascension of ascending node: 236.5764°
argument of perigee: 350.4413°
revolutions per day: 13.74561077
mean anomaly at epoch: 170.4397°
orbit number at epoch: 43429

The dashed part of the orbit path shows where the satellite is in the earth's shadow,  

DLR